sanya , China , ASIA

  • Saturday
    August 17

      Thundershower

      81 °F

      No wind

       

  • Sunday
    August 18

    Thundershower  Thundershower

    90 °F  81 °F

    West  No wind

    3~4L    

  • Monday
    August 19

    Thundershower  Thundershower

    90 °F  79 °F

    Southwest  No wind

    3~4L    

  • Tuesday
    August 20

    Thundershower  Thundershower

    90 °F  79 °F

    No wind  No wind

        

  • Wednesday
    August 21

    Thundershower  Thundershower

    91 °F  79 °F

    No wind  No wind

        

  • Thursday
    August 22

    Cloudy  Cloudy

    90 °F  79 °F

    No wind  No wind

        

  • Friday
    August 23

    Cloudy  Thundershower

    90 °F  81 °F

    No wind  No wind

        

Date   Weather Temperature Humidity Total_rain Visibility Wind
23:00 Thundershower 81°F 93.6% 1.6mm 999.9km Southeast  2.3m/s
02:00 Thundershower 81°F 93.6% 3.2mm 999.9km Southwest  3.1m/s
05:00 Thundershower 81°F 93.7% 3.3mm 999.9km Southwest  2.4m/s
08:00 Thundershower 81°F 93.1% 0.6mm 999.9km Southwest  3.5m/s
11:00 Thundershower 87°F 90.5% 0.5mm 999.9km Southwest  4.0m/s
14:00 Thundershower 89°F 90.3% 0.2mm 999.9km Southwest  5.2m/s
17:00 Thundershower 88°F 90.7% 0.1mm 999.9km Southwest  5.6m/s
20:00 Thundershower 83°F 83.7% 4.3mm 999.9km Southwest  5.5m/s
23:00 Thundershower 82°F 93.6% 4.9mm 999.9km Southwest  4.4m/s
02:00 Thundershower 81°F 94.3% 3.6mm 999.9km Southwest  3.4m/s
05:00 Thundershower 81°F 94.1% 0.1mm 999.9km Southwest  4.6m/s
08:00 Thundershower 81°F 92.2% 0.6mm 999.9km Southwest  3.4m/s
11:00 Thundershower 87°F 90.3% 2.1mm 999.9km Southwest  4.4m/s
14:00 Thundershower 89°F 91.6% 0.5mm 999.9km Southwest  4.8m/s
17:00 Thundershower 88°F 86.2% 0.3mm 999.9km Southwest  5.2m/s
20:00 Overcast 81°F 84% 0mm 999.9km Southwest  4.4m/s
23:00 Thundershower 81°F 95.7% 0.4mm 999.9km Southwest  3.6m/s
02:00 Thundershower 79°F 96.2% 0.8mm 999.9km Southwest  4.3m/s
05:00 Thundershower 81°F 96.8% 6.3mm 999.9km Southwest  3.7m/s
08:00 Thundershower 84°F 96.8% 6mm 999.9km Southwest  3.3m/s
11:00 Thundershower 89°F 94% 1.1mm 999.9km Southwest  4.9m/s
14:00 Thundershower 89°F 94.5% 1.5mm 999.9km Southwest  5.2m/s
17:00 Thundershower 86°F 89.8% 0.6mm 999.9km Southwest  4.8m/s
20:00 Thundershower 84°F 88% 0.2mm 999.9km Northwest  5.9m/s
23:00 Thundershower 80°F 96.8% 4.4mm 999.9km Southwest  4.7m/s
02:00 Thundershower 79°F 96.9% 7.7mm 999.9km Southwest  4.3m/s
05:00 Thundershower 80°F 97% 5.6mm 999.9km Southwest  5.6m/s
08:00 Thundershower 80°F 94.8% 6.6mm 999.9km Southwest  5.0m/s
11:00 Thundershower 91°F 92.6% 3.1mm 999.9km Southwest  5.3m/s
14:00 Thundershower 89°F 96.1% 7.7mm 999.9km Southwest  5.1m/s
17:00 Thundershower 87°F 88.7% 6.2mm 999.9km Southwest  5.5m/s
20:00 Thundershower 82°F 86.3% 2.5mm 999.9km Southwest  5.6m/s
23:00 Thundershower 80°F 96.9% 1.3mm 999.9km Southwest  4.6m/s
02:00 Thundershower 80°F 97.3% 3.9mm 999.9km Southwest  4.3m/s
05:00 Thundershower 79°F 97.1% 2.9mm 999.9km Southwest  4.6m/s
08:00 Thundershower 85°F 96.5% 3.5mm 999.9km Southwest  3.9m/s
11:00 Cloudy 89°F 94.4% 0mm 999.9km Southwest  5.1m/s
14:00 Cloudy 86°F 90.1% 0mm 999.9km Southwest  6.3m/s
17:00 Cloudy 85°F 94.5% 0mm 999.9km Southwest  5.7m/s
20:00 Cloudy 85°F 84.6% 0mm 999.9km Southwest  5.8m/s
23:00 Cloudy 82°F 93.9% 0mm 999.9km Southwest  3.2m/s
02:00 Cloudy 81°F 95.9% 0mm 999.9km Southwest  3.7m/s
05:00 Cloudy 80°F 95.9% 0mm 999.9km Southwest  3.3m/s
08:00 Cloudy 79°F 96% 0mm 999.9km Southwest  3.5m/s
11:00 Cloudy 88°F 93% 0mm 999.9km Southwest  3.5m/s
14:00 Cloudy 89°F 88.4% 0mm 999.9km Southwest  4.9m/s
17:00 Cloudy 85°F 94.7% 0mm 999.9km Southwest  4.1m/s
20:00 Cloudy 83°F 83.3% 0mm 999.9km Southwest  3.7m/s
23:00 Thundershower 83°F 95.2% 0.2mm 999.9km Northwest  3.6m/s
02:00 Overcast 81°F 95.1% 0mm 999.9km Southwest  2.7m/s
05:00 Thundershower 81°F 95% 2.2mm 999.9km Southwest  2.8m/s